Location: Gleizolles
(44.4833°N, 6.7667°E)
Time: 00:53:25
(UTC+00:00)

S-56A Canister/Altair - Pass Details

Date: 30 June 2024
Orbit: 638 x 2488 km, 38.9° (Epoch: 24 July)

Event Time Altitude Azimuth Distance (km) Brightness Sun altitude
Rises 20:58:46 0° 268° (W) 3,939 11.7 -13.4°
Reaches altitude 10° 21:01:08 10° 264° (W) 3,182 11.1 -13.6°
Maximum altitude 21:09:08 61° 187° (S) 1,807 9.1 -14.5°
Drops below altitude 10° 21:21:09 10° 112° (ESE) 4,651 11.0 -15.6°
Enters shadow 21:22:18 - 111° (ESE) 4,984 11.2 -15.8°
Sets 21:25:22 0° 109° (ESE) 5,858 - -16.0°
